Stündliche Wetter Kyselivka

Heute, 8 Mai, Samstag

Zeit Temperatur Niederschläge Wind Luftdruck Luftfeuchtigkeit
00:00 +8°C° 0.3 mm 2 m/S 735 mmHg 93%
01:00 +8°C° 0.3 mm 2 m/S 735 mmHg 95%
02:00 +8°C° 0 mm 3 m/S 735 mmHg 95%
03:00 +6°C° 0.3 mm 4 m/S 735 mmHg 94%
04:00 +5°C° 0.3 mm 6 m/S 735 mmHg 94%
05:00 +4°C° 0.3 mm 7 m/S 735 mmHg 93%
06:00 +4°C° 0.6 mm 6 m/S 736 mmHg 92%
07:00 +4°C° 0.6 mm 6 m/S 737 mmHg 91%
08:00 +5°C° 0.6 mm 5 m/S 737 mmHg 90%
09:00 +3°C° 0.3 mm 6 m/S 738 mmHg 91%
10:00 +3°C° 0.3 mm 6 m/S 738 mmHg 92%
11:00 +3°C° 0.3 mm 7 m/S 739 mmHg 94%
12:00 +3°C° 0.1 mm 7 m/S 740 mmHg 93%
13:00 +3°C° 0.1 mm 7 m/S 740 mmHg 92%
14:00 +3°C° 0.1 mm 6 m/S 741 mmHg 91%
15:00 +4°C° 0.1 mm 6 m/S 741 mmHg 87%
16:00 +4°C° 0.1 mm 6 m/S 741 mmHg 82%
17:00 +6°C° 0.1 mm 5 m/S 742 mmHg 77%
18:00 +5°C° 0 mm 5 m/S 742 mmHg 81%
19:00 +4°C° 0 mm 4 m/S 743 mmHg 85%
20:00 +3°C° 0 mm 3 m/S 743 mmHg 89%
21:00 +2°C° 0 mm 3 m/S 744 mmHg 90%
22:00 +2°C° 0 mm 3 m/S 744 mmHg 91%
23:00 +1°C° 0 mm 3 m/S 744 mmHg 93%

Morgen, 9 Mai, Sonntag

Zeit Temperatur Niederschläge Wind Luftdruck Luftfeuchtigkeit
00:00 +1°C° 0 mm 3 m/S 745 mmHg 93%
01:00 +1°C° 0 mm 3 m/S 745 mmHg 93%
02:00 0°C° 0 mm 3 m/S 745 mmHg 93%
03:00 0°C° 0 mm 3 m/S 746 mmHg 93%
04:00 0°C° 0 mm 3 m/S 746 mmHg 93%
05:00 0°C° 0 mm 3 m/S 746 mmHg 93%
06:00 +2°C° 0 mm 3 m/S 747 mmHg 87%
07:00 +4°C° 0 mm 3 m/S 747 mmHg 82%
08:00 +7°C° 0 mm 3 m/S 748 mmHg 76%
09:00 +8°C° 0 mm 3 m/S 748 mmHg 68%
10:00 +10°C° 0 mm 3 m/S 748 mmHg 60%
11:00 +11°C° 0 mm 4 m/S 748 mmHg 52%
12:00 +12°C° 0 mm 3 m/S 748 mmHg 48%
13:00 +13°C° 0 mm 3 m/S 748 mmHg 45%
14:00 +14°C° 0 mm 2 m/S 748 mmHg 42%
15:00 +14°C° 0 mm 2 m/S 748 mmHg 43%
16:00 +14°C° 0 mm 2 m/S 748 mmHg 44%
17:00 +14°C° 0 mm 2 m/S 748 mmHg 46%
18:00 +12°C° 0 mm 2 m/S 748 mmHg 51%
19:00 +10°C° 0 mm 2 m/S 749 mmHg 55%
20:00 +9°C° 0 mm 1 m/S 749 mmHg 60%
21:00 +7°C° 0 mm 2 m/S 749 mmHg 61%
22:00 +7°C° 0 mm 2 m/S 749 mmHg 63%
23:00 +5°C° 0 mm 3 m/S 749 mmHg 64%

übermorgen, 10 Mai, Montag

Zeit Temperatur Niederschläge Wind Luftdruck Luftfeuchtigkeit
00:00 +5°C° 0 mm 3 m/S 749 mmHg 66%
01:00 +4°C° 0 mm 3 m/S 749 mmHg 68%
02:00 +4°C° 0 mm 3 m/S 750 mmHg 70%
03:00 +4°C° 0 mm 3 m/S 750 mmHg 71%
04:00 +4°C° 0 mm 3 m/S 750 mmHg 72%
05:00 +4°C° 0 mm 3 m/S 750 mmHg 73%
06:00 +7°C° 0 mm 3 m/S 750 mmHg 69%
07:00 +8°C° 0 mm 4 m/S 750 mmHg 65%
08:00 +11°C° 0 mm 4 m/S 750 mmHg 61%
09:00 +12°C° 0 mm 4 m/S 750 mmHg 57%
10:00 +14°C° 0 mm 5 m/S 750 mmHg 53%
11:00 +15°C° 0 mm 5 m/S 750 mmHg 49%
12:00 +16°C° 0 mm 5 m/S 750 mmHg 48%
13:00 +16°C° 0 mm 5 m/S 750 mmHg 47%
14:00 +17°C° 0 mm 5 m/S 749 mmHg 46%
15:00 +17°C° 0 mm 5 m/S 749 mmHg 49%
16:00 +17°C° 0 mm 4 m/S 749 mmHg 52%
17:00 +17°C° 0 mm 4 m/S 749 mmHg 55%
18:00 +14°C° 0 mm 4 m/S 749 mmHg 62%
19:00 +12°C° 0 mm 4 m/S 749 mmHg 69%
20:00 +10°C° 0 mm 3 m/S 749 mmHg 75%
21:00 +8°C° 0 mm 4 m/S 749 mmHg 77%
22:00 +8°C° 0 mm 4 m/S 749 mmHg 78%
23:00 +7°C° 0 mm 4 m/S 749 mmHg 79%

11 Mai, Dienstag

Zeit Temperatur Niederschläge Wind Luftdruck Luftfeuchtigkeit
00:00 +7°C° 0 mm 3 m/S 749 mmHg 79%
01:00 +7°C° 0 mm 3 m/S 749 mmHg 79%
02:00 +5°C° 0 mm 3 m/S 749 mmHg 79%
03:00 +5°C° 0 mm 3 m/S 749 mmHg 78%
04:00 +4°C° 0 mm 3 m/S 749 mmHg 78%
05:00 +4°C° 0 mm 3 m/S 749 mmHg 77%
06:00 +7°C° 0 mm 3 m/S 749 mmHg 72%
07:00 +8°C° 0 mm 4 m/S 749 mmHg 66%
08:00 +12°C° 0 mm 4 m/S 749 mmHg 61%
09:00 +13°C° 0 mm 4 m/S 748 mmHg 57%
10:00 +14°C° 0 mm 4 m/S 748 mmHg 52%
11:00 +17°C° 0 mm 4 m/S 748 mmHg 48%
12:00 +17°C° 0 mm 4 m/S 748 mmHg 46%
13:00 +18°C° 0 mm 4 m/S 747 mmHg 44%
14:00 +19°C° 0 mm 4 m/S 747 mmHg 42%
15:00 +19°C° 0 mm 4 m/S 746 mmHg 46%
16:00 +18°C° 0 mm 4 m/S 746 mmHg 50%
17:00 +18°C° 0 mm 3 m/S 746 mmHg 53%
18:00 +16°C° 0 mm 3 m/S 746 mmHg 61%
19:00 +13°C° 0 mm 3 m/S 745 mmHg 68%
20:00 +11°C° 0 mm 3 m/S 745 mmHg 75%
21:00 +11°C° 0 mm 3 m/S 745 mmHg 80%
22:00 +10°C° 0 mm 4 m/S 745 mmHg 85%
23:00 +10°C° 0 mm 4 m/S 745 mmHg 90%

12 Mai, Mittwoch

Zeit Temperatur Niederschläge Wind Luftdruck Luftfeuchtigkeit
00:00 +9°C° 0 mm 3 m/S 744 mmHg 92%
01:00 +9°C° 0 mm 3 m/S 744 mmHg 94%
02:00 +8°C° 0 mm 3 m/S 744 mmHg 96%
03:00 +8°C° 0 mm 3 m/S 744 mmHg 96%
04:00 +7°C° 0 mm 3 m/S 744 mmHg 96%
05:00 +7°C° 0 mm 2 m/S 744 mmHg 96%
06:00 +8°C° 0 mm 3 m/S 743 mmHg 88%
07:00 +10°C° 0 mm 3 m/S 743 mmHg 80%
08:00 +11°C° 0 mm 4 m/S 743 mmHg 73%
09:00 +12°C° 0 mm 4 m/S 743 mmHg 71%
10:00 +12°C° 0 mm 4 m/S 742 mmHg 70%
11:00 +12°C° 0 mm 4 m/S 742 mmHg 68%
12:00 +13°C° 0 mm 5 m/S 742 mmHg 67%
13:00 +13°C° 0 mm 5 m/S 741 mmHg 66%
14:00 +13°C° 0 mm 5 m/S 741 mmHg 65%
15:00 +13°C° 0.1 mm 5 m/S 741 mmHg 66%
16:00 +13°C° 0.1 mm 5 m/S 740 mmHg 66%
17:00 +13°C° 0.1 mm 5 m/S 740 mmHg 67%
18:00 +12°C° 0.1 mm 5 m/S 740 mmHg 74%
19:00 +10°C° 0.1 mm 4 m/S 740 mmHg 82%
20:00 +7°C° 0.1 mm 4 m/S 740 mmHg 90%
21:00 +8°C° 0 mm 3 m/S 739 mmHg 92%
22:00 +7°C° 0 mm 3 m/S 739 mmHg 94%
23:00 +5°C° 0 mm 3 m/S 739 mmHg 96%

13 Mai, Donnerstag

Zeit Temperatur Niederschläge Wind Luftdruck Luftfeuchtigkeit
00:00 +5°C° 0 mm 3 m/S 739 mmHg 96%
01:00 +5°C° 0 mm 3 m/S 739 mmHg 97%
02:00 +5°C° 0 mm 3 m/S 738 mmHg 97%
03:00 +5°C° 0 mm 3 m/S 738 mmHg 97%
04:00 +5°C° 0 mm 3 m/S 738 mmHg 97%
05:00 +5°C° 0 mm 3 m/S 737 mmHg 97%
06:00 +7°C° 0 mm 3 m/S 737 mmHg 94%
07:00 +7°C° 0 mm 4 m/S 737 mmHg 90%
08:00 +8°C° 0 mm 4 m/S 737 mmHg 87%
09:00 +8°C° 0.7 mm 5 m/S 737 mmHg 87%
10:00 +8°C° 0.7 mm 6 m/S 737 mmHg 87%
11:00 +8°C° 0.7 mm 6 m/S 737 mmHg 87%
12:00 +8°C° 1.2 mm 6 m/S 737 mmHg 89%
13:00 +7°C° 1.2 mm 6 m/S 737 mmHg 90%
14:00 +7°C° 1.2 mm 6 m/S 737 mmHg 92%
15:00 +7°C° 0.8 mm 6 m/S 736 mmHg 93%
16:00 +6°C° 0.8 mm 7 m/S 736 mmHg 94%
17:00 +8°C° 0.8 mm 7 m/S 736 mmHg 95%
18:00 +8°C° 0.2 mm 6 m/S 736 mmHg 95%
19:00 +8°C° 0.2 mm 6 m/S 736 mmHg 94%
20:00 +9°C° 0.2 mm 5 m/S 736 mmHg 94%
21:00 +8°C° 0.1 mm 4 m/S 736 mmHg 95%
22:00 +8°C° 0.1 mm 4 m/S 737 mmHg 96%
23:00 +9°C° 0.1 mm 3 m/S 737 mmHg 97%
Mehr zeigen

Wir brauchen deine Erlaubnis

Meteoprog und unser Service Anbieter werden persönliche Daten aufbewahren, so wie Cookies, Geräte Bezeichnung oder ähnliche Technologien von deinem Gerät und Prozess, so wie Persönliche Daten Inhalte und Werbungen, genauso wie social Media und den Verkehr zu analysieren.

  • Aufbewahrung und/oder Zugang zu deiner Geräte Informationen.

    Cookies, Geräte Bezeichnung oder andere Informationen, können aufbewahrt oder Zugang zu deinem Gerät erhalten, für den Grund, der oben angegeben wird.

  • Personalisierte Werbung und Inhalte, Messungen, Einblick in das Publikum und Produkt Entwicklung.

    Werbungen und Inhalte können personalisiert werden, basierend auf ein Profil. Mehr Daten können besser personalisierte Werbungen und Inhalte hinzufügen. Werbung und Inhalte können gezeigt und gemessen werden. Einblicke über das Publikum, welche die Werbung gesehen haben und den Inhalt, können abgeleitet werden. So wie Daten können genutzt werden, um es zu verbessern oder die Benutzer Erfahrung zu verbessern das System und die Software.

Wenn du “Ich stimme zu” klickst, erlaubst du uns, die Cookies zu benutzen die Geräte Bezeichnung, den Web oder ähnliche Technologien zu benutzen. Deine Settings, können in deinem Gerät bei deinem Browser geändert werden.

Für den bestimmten Zweck, berechtigten Interessen beruhen darauf, mehr als auf den Inhalt. Du kannst mehr darüber in unseren Privaten und Cookie Politik lesen.